Skip Page Navigation
NASA JPL Caltech
NASA Logo - Jet Propulsion Laboratory + View the NASA Portal
+ Center for Near-Earth Object Studies
JPL Home Earth Solar System Stars & Galaxies Technology
JPL Solar System Dynamics
BODIES ORBITS EPHEMERIDES TOOLS PHYSICAL DATA DISCOVERY FAQ SITE MAP
IMPORTANT: The SSD Announcement email list is now available. Major changes are coming in the near future, including possible hostname and/or URL changes. To be notified of such changes, subscribe to this email list.

Please visit this page for more details.


JPL Small-Body Database Browser
Search: [ help ]  
351003 (2003 JC)
Classification: Inner Main-belt Asteroid          SPK-ID: 2351003
Ephemeris | Orbit Diagram | Orbital Elements | Mission Design | Physical Parameters | Discovery Circumstances | Close-Approach Data ]

[ show orbit diagram ]
Orbital Elements at Epoch 2458600.5 (2019-Apr-27.0) TDB
Reference: JPL 8 (heliocentric ecliptic J2000)
 Element Value Uncertainty (1-sigma)   Units 
e .0711932519734752 7.5834e-08  
a 1.879397291238455 1.0882e-08 au
q 1.745596886325049 1.4208e-07 au
i 22.08236765166734 1.065e-05 deg
node 47.17913926839168 1.727e-05 deg
peri 146.1502235166468 6.3625e-05 deg
M 93.51625758284915 6.1037e-05 deg
tp 2458356.038236990851
(2018-Aug-25.53823699)
0.00015891 TDB
period 941.0795187705826
2.58
8.1736e-06
2.238e-08
d
yr
n .3825394058838945 3.3225e-09 deg/d
Q 2.013197696151861 1.1657e-08 au
  Orbit Determination Parameters
   # obs. used (total)      78  
   data-arc span      5359 days (14.67 yr)  
   first obs. used      2003-04-08  
   last obs. used      2017-12-09  
   planetary ephem.      DE431  
   SB-pert. ephem.      SB431-N16  
   condition code      0  
   norm. resid. RMS      .694  
   source      ORB  
   producer      Otto Matic  
   solution date      2019-Jul-14 06:31:38  

Additional Information
 Earth MOID = .753036 au 
 Jupiter MOID = 2.97337 au 
 T_jup = 3.880 
[ show covariance matrix ]

Ephemeris | Orbit Diagram | Orbital Elements | Mission Design | Physical Parameters | Discovery Circumstances | Close-Approach Data ]

Physical Parameter Table
Parameter Symbol Value Units Sigma Reference Notes
absolute magnitude H 17.8   n/a MPO434216  

351003 (2003 JC)          Discovered 2003-May-01 by Spacewatch at Kitt Peak
Reference: 20130127/Numbers.arcLast Updated: 2013-01-31

[ show close-approach data ]
Ephemeris | Orbit Diagram | Orbital Elements | Mission Design | Physical Parameters | Discovery Circumstances | Close-Approach Data ]
ABOUT SSD CREDITS/AWARDS PRIVACY/COPYRIGHT GLOSSARY LINKS
FirstGov
(server date/time)  
NASA Home Page
Site Manager:   Ryan S. Park
Webmaster  Alan B. Chamberlin